Location: Zagreb
(45.8000°N, 16.0000°E)
Time: 00:45:09
(UTC+01:00)

Transit 2A Rocket - Visible Passes

Search period start: 26 January 2020 00:00
Search period end: 05 February 2020 00:00
Orbit: 593 x 910 km, 66.7° (Epoch: 25 January)

Date Brightness Start Highest point End Pass type
(mag) Time Alt. Az. Time Alt. Az. Time Alt. Az.
26 Jan 5.9 04:32:17 35° E 04:32:17 35° E 04:35:50 10° NE visible
26 Jan 5.4 06:12:14 18° W 06:14:27 28° NW 06:18:16 10° NNE visible
27 Jan 7.4 03:51:37 15° ENE 03:51:37 15° ENE 03:52:43 10° ENE visible
27 Jan 4.7 05:31:34 46° WNW 05:31:44 46° NW 05:35:58 10° NNE visible
28 Jan 5.5 04:50:42 39° NNE 04:50:42 39° NNE 04:53:31 10° NNE visible
28 Jan 6.3 06:30:38 12° WNW 06:32:26 14° NW 06:34:54 10° N visible
29 Jan 7.0 04:09:41 18° NE 04:09:41 18° NE 04:10:54 10° NE visible
29 Jan 5.9 05:49:37 21° NW 05:49:37 21° NW 05:52:55 10° N visible
30 Jan 6.1 05:08:30 24° N 05:08:30 24° N 05:10:43 10° NNE visible
31 Jan 6.8 04:27:17 17° NNE 04:27:17 17° NNE 04:28:22 10° NNE visible
31 Jan 6.6 06:07:12 11° NW 06:07:37 11° NNW 06:09:09 10° N visible
01 Feb 6.6 05:25:55 15° NNW 05:25:55 15° NNW 05:27:30 10° N visible
02 Feb 6.9 04:44:36 14° N 04:44:36 14° N 04:45:25 10° NNE visible
04 Feb 7.1 05:01:44 11° N 05:01:44 11° N 05:01:56 10° N visible
